Regional Weather Roundup
Issued by NWS

Home | Current Version | Previous Version | Text Only | Print | Product List | Glossary Off
Versions: 1 2 3 4 5 6 7 8 9 10 11 12 13 14 15 16 17 18 19 20 21 22 23 24 25 26 27 28 29 30 31 32 33 34 35 36 37 38 39 40 41 42 43 44 45 46 47 48 49 50

516
ASUS43 KLSX 161507
RWRMO

WEATHER SUMMARY FOR MISSOURI
NATIONAL WEATHER SERVICE SPRINGFIELD MO
1000 AM CDT WED AUG 16 2017

NOTE: "FAIR" INDICATES FEW OR NO CLOUDS BELOW 12,000 FEET WITH NO
       SIGNIFICANT WEATHER AND/OR OBSTRUCTIONS TO VISIBILITY.
       CURRENT SKY AND/OR WEATHER CONDITIONS ARE NOT AVAILABLE FOR
       CHILLICOTHE AND FARMINGTON.

MOZ001>031-035>038-043-044-053-054-161600-
...NORTHERN AND WESTERN MISSOURI...

CITY           SKY/WX    TMP DP  RH WIND       PRES   REMARKS
KANSAS CTY INT CLOUDY    74  71  91 S9        29.85S
KANSAS C DTWN  CLOUDY    75  71  87 E7        29.84F
LEE`S SUMMIT   CLOUDY    76  73  91 E12       29.87F
ST JOSEPH      RAIN      74  73  97 S9        29.83S FOG
CHILLICOTHE      N/A     72  72 100 SE9G17    29.84F
KIRKSVILLE     CLOUDY    75  72  90 S6        29.92R

$$
MOZ066>068-077>081-088>096-101>105-161600-
...SOUTHWEST MISSOURI...

CITY           SKY/WX    TMP DP  RH WIND       PRES   REMARKS
SPRINGFIELD    CLOUDY    79  75  87 S17       29.92F
JOPLIN         CLOUDY    85  76  74 S21       29.90R HX  94
BRANSON        CLOUDY    75  73  94 SE5       29.98S

$$
MOZ032>034-039>042-045>050-055>058-069>072-161600-
...CENTRAL MISSOURI...

CITY           SKY/WX    TMP DP  RH WIND       PRES   REMARKS
COLUMBIA       CLOUDY    75  72  90 E6        29.93F
JEFFERSON CITY CLOUDY    77  74  90 NE6       29.91S
ROLLA          CLOUDY    77  75  93 S10       29.96F
SEDALIA        PTSUNNY   78  76  93 SE9       29.90F
WHITEMAN AFB   PTSUNNY   77  77  99 S8        29.86F
WARRENSBURG    PTSUNNY   73  72  94 SE6       29.87S
OSAGE BEACH    CLOUDY    76  73  91 S9        29.93S

$$
MOZ051-052-059>065-161600-
...EAST CENTRAL MISSOURI...

CITY           SKY/WX    TMP DP  RH WIND       PRES   REMARKS
ST LOUIS INTL  CLOUDY    80  73  79 S10       29.96S
SPIRIT OF STL  CLOUDY    80  75  84 SE6       29.94S
ST CHARLES     CLOUDY    79  75  87 SE7       29.94S

$$
MOZ072>076-082>087-097>100-106>115-161600-
...SOUTH CENTRAL AND SOUTHEAST MISSOURI...

CITY           SKY/WX    TMP DP  RH WIND       PRES   REMARKS
CAPE GIRARDEAU CLOUDY    78  74  87 S6        29.99R
FARMINGTON     LGT RAIN  75  74  96 S7        30.00S
POPLAR BLUFF   CLOUDY    79  77  94 S8        29.98S
WEST PLAINS    CLOUDY    78  74  87 S8        30.00S

$$



USA.gov is the U.S. government's official web portal to all federal, state and local government web resources and services.